Location: *
(10.4782°N, 67.2163°W)
Time: 00:00:53
(UTC+00:00)

SL-16 R/B - Pass Details

Date: 23 May 2024
Orbit: 985 x 1007 km, 99.7° (Epoch: 15 June)

Event Time Altitude Azimuth Distance (km) Brightness Sun altitude
Exits shadow 07:01:52 34° 54° (NE) 1,596 3.9 -40.6°
Drops below altitude 10° 07:06:28 10° 10° (N) 2,774 5.3 -39.7°
Sets 07:09:08 0° 2° (N) 3,724 6.0 -39.2°
